星链-34371 (STARLINK-34371)

导读

STARLINK-34371是美国SpaceX星链星座的一颗卫星,于2025年7月8日由美国发射升空。星链项目旨在构建全球卫星互联网星座,为全球各地用户提供低延迟、高速率的宽带网络服务,该卫星将补充星链星座的网络覆盖能力,推动全球卫星互联网组网进程。

基本信息
目录编号:
64756
目录名称:
STARLINK-34371
国际标识:
2025-147B
轨道中心:
EARTH
卫星名称:
星链-34371
卫星全名:
星链-34371 (STARLINK-34371)
卫星状态:
在轨 (已飞行340 天)
发射日期:
2025-07-08 UTC
国别 :
美国 (US)
星等 :
--
轨道信息
数据来源 国际轨道数据 AOE轨道数据
星历时间 2026-06-13T15:02:55+0800
16小时前
查看轨道信息
2026-06-12T05:00:00+0800
2天前
查看轨道信息
半长轴 6848.844km 6848.766km
偏心率 0.0001173 0.0001329
轨道倾角 53.157° 53.158°
近地点辐角 82.069° 66.675°
升交点赤经 158.364° 164.969°
平近点角 278.044° 26.148°
近地点 469.903km 469.718km
远地点 471.511km 471.54km
周期 94.012分钟 94.011分钟
每日圈数 15.317113 15.317374
详细信息
固有亮度:
5
最大亮度:
2.5
卫星平台:
Starlink V1.0
覆盖范围:
全球
运营商:
太空探索技术公司
运营商所在国:
美国
制造商(研发单位):
太空探索技术公司
制造商所在国:
美国
使用方式:
暂无
卫星简介
Starlink 计划是 SpaceX 推出的全球卫星互联网项目,通过发射低轨道卫星,为全球尤其是偏远地区提供高速、低延迟的互联网服务。自 2019 年起,Starlink 已部署数千颗卫星,旨在缩小全球数字鸿沟,推动互联网普及。该项目还为军事、航空等行业提供通信支持,带来广泛经济效益。
2D轨道图
3D轨道图
轨道高度分析图
轨道倾角分析图
轨道综合分析图
查看轨道综合分析图